Hourly Data Report for August 24, 2015

All times are specified in Local Standard Time (LST). Add 1 hour to adjust for Daylight Saving Time where and when it is observed.

TORONTO INTL A
ONTARIO

43°40'36.000" N
79°37'50.000" W
173.40 m
6158731
71624
YYZ

Download Data

Hourly Data (August 2015)
Hourly Data Report for August 24, 2015
Temp Definition
°C
Dew Point Temp Definition
°C
Rel Hum Definition
%
Wind Dir Definition
10's deg

Wind Spd Definition
km/h
Visibility Definition
km
Stn Press Definition
kPa
Hmdx Definition


Wind Chill Definition


Weather Definition


TIME
00:00 Legend Double Dagger 20.6 17.5 82 14 11 24.1 98.84 26   LegendNANA
01:00 Legend Double Dagger 20.9 17.4 80 12 6 24.1 98.77 26   Mostly Cloudy
02:00 Legend Double Dagger 20.6 17.1 80 15 7 19.3 98.73 26   Rain
03:00 Legend Double Dagger 20.1 17.5 85 22 4 24.1 98.71 26   LegendNANA
04:00 Legend Double Dagger 19.3 17.3 88 24 16 19.3 98.74     Rain Showers
05:00 Legend Double Dagger 18.1 15.2 83 30 25 24.1 98.76     LegendNANA
06:00 Legend Double Dagger 16.8 14.5 86 28 15 24.1 98.85     LegendNANA
07:00 Legend Double Dagger 17.4 14.2 81 27 23 24.1 98.92     Mainly Clear
08:00 Legend Double Dagger 18.6 14.4 76 26 20 24.1 98.95     LegendNANA
09:00 Legend Double Dagger 20.0 13.8 67 27 31 24.1 98.98     LegendNANA
10:00 Legend Double Dagger 20.5 13.1 62 24 22 24.1 99.00     Mostly Cloudy
11:00 Legend Double Dagger 21.2 11.4 53 27 11 24.1 98.98     LegendNANA
12:00 Legend Double Dagger 22.4 11.0 48 26 23 24.1 98.95     LegendNANA
13:00 Legend Double Dagger 22.6 9.9 44 22 32 24.1 98.94     Mostly Cloudy
14:00 Legend Double Dagger 22.1 11.3 50 23 18 24.1 98.90     LegendNANA
15:00 Legend Double Dagger 22.1 11.3 50 24 16 24.1 98.89     LegendNANA
16:00 Legend Double Dagger 22.5 11.4 49 21 25 24.1 98.88     Mostly Cloudy
17:00 Legend Double Dagger 21.8 11.7 52 24 21 24.1 98.89     LegendNANA
18:00 Legend Double Dagger 22.0 10.6 48 24 19 24.1 98.88     LegendNANA
19:00 Legend Double Dagger 20.7 10.6 52 23 21 24.1 98.89     Mainly Clear
20:00 Legend Double Dagger 20.1 10.9 55 22 21 24.1 98.91     LegendNANA
21:00 Legend Double Dagger 19.6 11.2 58 23 18 24.1 98.93     LegendNANA
22:00 Legend Double Dagger 18.8 11.7 63 28 32 24.1 98.99     Mostly Cloudy
23:00 Legend Double Dagger 16.3 12.3 77 31 15 24.1 99.00     LegendNANA

Notes on Data Quality.

Legend

  • E = Estimated
  • M = Missing
  • NA = Not Available
  • ‡ = Partner data that is not subject to review by the National Climate Archives
Date modified: